カタログに戻る

SL-14 DEB

運用中PO
NORAD 17273·DEBRIS·🇷🇺 Russia

打ち上げ Dec 18, 1986 から Plesetsk Cosmodrome

Loading…

次のパス (今後24時間)

TLE

最新Source: Space-Track

元期: Sep 14, 2026, 10:50 UTC

1 17273U 86101H   26257.45171082  .00000777  00000-0  40934-3 0  9990
2 17273  82.5396 244.1097 0020647 302.1652 213.0635 14.12825931 32180

AllMySatでSL-14 DEBをリアルタイム追跡

Download on the App Store